weather.gov     
National Weather Service

Terminal Aerodrome Forecast
NWS Homepage
This page is being discontinued on March 12, 2014.
The same data is available at this site. Please update your bookmarks.
Thank you, and we apologize for the inconvenience.
Please send an email to SR-SRH.Webmaster@noaa.gov with any concerns.


Current Version
Previous Version:    01  02  03  04  05  06  07  08  09  10  11  12  13  14  15  16  17  18  19  20  21  22  23  24  25  26  27  28  29  30  
   31  32  33  34  35  36  37  38  39  40  41  42  43  
[Printable]
431
FTUS42 KGSP 010700 AAA
TAFGSP
TAF AMD
KGSP 010746Z 0108/0206 01004KT P6SM SHRA SCT003 OVC020
      TEMPO 0108/0112 -SHRA OVC008
     FM011200 04005KT 5SM -SHRA OVC008
     FM011600 05004KT 6SM -SHRA OVC013 PROB30 0118/0124 4SM TSRA
      OVC013CB
     FM020300 00000KT P6SM OVC010=


U.S. Dept. of Commerce
NOAA National Weather Service
1325 East West Highway
Silver Spring, MD 20910
E-mail: w-nws.webmaster@noaa.gov
Page last modified: May 16, 2007
NATIONAL WEATHER SERVICE: for Safety, for Work, for Fun - FOR LIFE